Location: Bovenkerk
(52.2915°N, 4.8336°E)
Time: 16:13:48
(UTC+00:00)

ATLAS CENTAUR R/B - Pass Details

Date: 09 April 2020
Orbit: 471 x 675 km, 64.7° (Epoch: 01 June)

Event Time Altitude Azimuth Distance (km) Brightness Sun altitude
Rises 20:14:47 0° 318° (NW) 2,716 6.6 -15.3°
Reaches altitude 10° 20:17:09 10° 325° (NW) 1,785 5.1 -15.6°
Maximum altitude 20:20:56 41° 37° (NE) 748 2.0 -16.1°
Enters shadow 20:22:26 28° 88° (E) 977 2.2 -16.3°
